Key West Weather Center

Moon Phase Calendar



Online Cameras

 


      

Current Conditions in Key West
5/18/2024 6:22:31 PM

92°F
Feels Like 105
Rain
Humidity
60%
Pressure
29.94"
Wind
3.4 mph (NW)
Dew Point
76°F
UV Index
2/10 (Low)
Visibility
6 mi

Hourly Forecast

Date & Time Sat, May 18
6:00 PM
Sat, May 18
7:00 PM
Sat, May 18
8:00 PM
Sat, May 18
9:00 PM
Sat, May 18
10:00 PM
Sat, May 18
11:00 PM
Sun, May 19
12:00 AM
Sun, May 19
1:00 AM
Sun, May 19
2:00 AM
Sun, May 19
3:00 AM
Sun, May 19
4:00 AM
Sun, May 19
5:00 AM
Sun, May 19
6:00 AM
Sun, May 19
7:00 AM
Sun, May 19
8:00 AM
Sun, May 19
9:00 AM
Sun, May 19
10:00 AM
Sun, May 19
11:00 AM
Sun, May 19
12:00 PM
Sun, May 19
1:00 PM
Sun, May 19
2:00 PM
Sun, May 19
3:00 PM
Sun, May 19
4:00 PM
Sun, May 19
5:00 PM
Sun, May 19
6:00 PM
Sun, May 19
7:00 PM
Sun, May 19
8:00 PM
Sun, May 19
9:00 PM
Sun, May 19
10:00 PM
Sun, May 19
11:00 PM
Mon, May 20
12:00 AM
Mon, May 20
1:00 AM
Mon, May 20
2:00 AM
Mon, May 20
3:00 AM
Mon, May 20
4:00 AM
Mon, May 20
5:00 AM
Mon, May 20
6:00 AM
Mon, May 20
7:00 AM
Mon, May 20
8:00 AM
Mon, May 20
9:00 AM
Mon, May 20
10:00 AM
Mon, May 20
11:00 AM
Mon, May 20
12:00 PM
Mon, May 20
1:00 PM
Mon, May 20
2:00 PM
Mon, May 20
3:00 PM
Mon, May 20
4:00 PM
Mon, May 20
5:00 PM
Condition
Clear

Clear

Clear

Rain

Rain

Clear

Clear

Clear

Clear

Clouds

Clouds

Clouds

Clouds

Rain

Rain

Rain

Rain

Clear

Clear

Clear

Clear

Clear

Clear

Clear

Clear

Clear

Clear

Clear

Clear

Rain

Rain

Rain

Clear

Clear

Clear

Clear

Clear

Clear

Clear

Rain

Rain

Clear

Clear

Clear

Clear

Clear

Clear

Clear
Temperature 92°F91°F89°F87°F86°F85°F84°F84°F84°F84°F84°F84°F84°F83°F82°F83°F83°F84°F84°F84°F84°F85°F85°F85°F85°F85°F84°F84°F84°F83°F83°F83°F83°F83°F83°F83°F83°F83°F83°F83°F83°F83°F83°F84°F84°F84°F84°F84°F
Feels Like 105°F103°F102°F99°F97°F96°F96°F93°F93°F93°F92°F91°F91°F91°F89°F91°F90°F91°F92°F93°F93°F93°F93°F93°F93°F93°F93°F93°F92°F90°F89°F89°F89°F89°F88°F88°F88°F88°F88°F88°F88°F88°F88°F88°F88°F89°F89°F89°F
Cloudiness 0%1%2%0%0%0%0%1%1%53%50%34%26%21%17%4%5%2%1%1%1%0%0%0%0%0%0%0%0%0%0%0%0%0%0%0%0%0%0%0%0%0%0%0%0%0%0%0%
Visibility 6 mi6 mi6 mi6 mi6 mi6 mi6 mi6 mi6 mi6 mi6 mi6 mi6 mi6 mi6 mi6 mi6 mi6 mi6 mi6 mi6 mi6 mi6 mi6 mi6 mi6 mi6 mi6 mi6 mi6 mi6 mi6 mi6 mi6 mi6 mi6 mi6 mi6 mi6 mi6 mi6 mi6 mi6 mi6 mi6 mi6 mi6 mi6 mi
Precipitation 0%0%0%99%100%79%74%87%75%0%0%0%0%36%100%83%86%80%70%56%48%0%0%0%0%0%0%0%0%52%98%100%80%0%0%0%0%0%0%53%50%33%14%0%0%0%0%0%
Humidity 60%63%67%71%76%78%82%79%78%78%75%73%75%78%79%77%76%75%75%75%74%73%73%72%71%72%75%76%73%72%72%70%70%69%67%67%67%67%66%67%67%67%66%65%64%64%64%66%
Dew Point 76°F76°F77°F77°F77°F77°F78°F77°F76°F76°F75°F74°F75°F76°F75°F75°F75°F75°F75°F76°F75°F75°F75°F75°F75°F75°F76°F76°F75°F74°F73°F72°F73°F72°F71°F71°F71°F71°F71°F71°F71°F71°F71°F71°F71°F70°F71°F72°F
Pressure 29.94"29.94"29.94"29.94"29.97"29.97"29.97"29.94"29.91"29.91"29.91"29.91"29.94"29.94"29.94"29.97"29.97"29.97"29.97"29.97"29.94"29.94"29.94"29.91"29.88"29.88"29.88"29.88"29.91"29.94"29.94"29.91"29.91"29.88"29.88"29.88"29.88"29.88"29.91"29.94"29.94"29.94"29.94"29.91"29.91"29.91"29.88"29.88"
Wind Speed 7.6 mph7.5 mph8.3 mph8.6 mph7.9 mph11.6 mph15.3 mph16 mph16.6 mph15.5 mph13.7 mph11.4 mph11.2 mph10.2 mph8.2 mph4.3 mph1.3 mph2.9 mph5.2 mph6.5 mph5.8 mph5.6 mph6.4 mph7.7 mph9.6 mph9.3 mph10.7 mph13.3 mph8.4 mph6.2 mph5 mph3.6 mph4 mph4.2 mph1.6 mph0.7 mph1.4 mph1 mph1.4 mph1.9 mph3.2 mph4.3 mph4.3 mph5.1 mph6.9 mph8.2 mph8.7 mph10 mph
Wind
Direction
37°
NE
42°
NE
51°
NE
66°
ENE
92°
E
125°
SE
135°
SE
141°
SE
145°
SE
150°
SSE
148°
SSE
140°
SE
140°
SE
137°
SE
135°
SE
139°
SE
335°
NNW
324°
NW
304°
NW
315°
NW
312°
NW
317°
NW
316°
NW
322°
NW
339°
NNW
340°
NNW
341°
NNW
339°
NNW
353°
N
12°
NNE
20°
NNE
37°
NE
352°
N
353°
N
349°
N
114°
ESE
136°
SE
185°
S
264°
W
288°
WNW
308°
NW
311°
NW
303°
WNW
299°
WNW
304°
NW
308°
NW
310°
NW
318°
NW

Daily Forecast

Date High Low Precip. Humidity
Today
May 18

Rain
92 °F
83 °F
100%
81%
Sunday
May 19

Rain
85 °F
82 °F
100%
75%
Monday
May 20

Rain
84 °F
83 °F
100%
65%
Tuesday
May 21

Rain
83 °F
81 °F
53%
69%
Wednesday
May 22

Clear
83 °F
82 °F
0%
67%
Thursday
May 23

Rain
83 °F
82 °F
20%
62%
Friday
May 24

Clear
83 °F
82 °F
10%
64%
Saturday
May 25

Clear
83 °F
81 °F
0%
68%
Sunday
May 26

Clear
83 °F
82 °F
0%
68%
Monday
May 27

Clear
83 °F
82 °F
0%
68%
Tuesday
May 28

Clear
83 °F
82 °F
0%
70%
Wednesday
May 29

Clear
84 °F
82 °F
0%
74%
Thursday
May 30

Clear
84 °F
83 °F
0%
75%
Friday
May 31

Clouds
84 °F
83 °F
0%
75%
Saturday
Jun 1

Clouds
84 °F
83 °F
0%
75%
Sunday
Jun 2

Clouds
84 °F
83 °F
0%
73%

Temperature 8-14 Day Outlook



Precipitation 8-14 Day Outlook




Quick Links
Key West News
Key West Photos
Key West Videos




About Us
Contact Us
Site Map
Search Site
Advertise With Us
   
Key-West.CoastalTown.com
THE KEY WEST WEBSITE

Copyright 2024, Coastal Town
Privacy    |    Legal